sat.trackr.live / text

‹ back to catalog

STARLINK-1284

NORAD 45390 · 2020-019AG

PAYLOAD ACTIVE UNKNOWN

§ Identity

Operator
Country
US
Launch date
2020-03-18
Launch site
AFETR
Launch vehicle
Mass (kg)
RCS (m²)

Purposes: comms

External: N2YO · Heavens-Above · Gunter

§ Orbital elements

Epoch: 2026-05-25T02:46:34.428864Z

Period
91.83 min
Inclination
53.0402°
Eccentricity
0.0005192
Mean motion
15.68101068 rev/d
Perigee alt
360.8 km
Apogee alt
367.8 km
Semi-major
6,742.5 km
B*
4.3358e-4
RAAN
118.7505°
Arg perigee
6.6310°
Mean anomaly
353.4773°
Rev number
34,215

§ Raw data

STARLINK-12841 45390U 20019AG  26145.11567626  .00048907  00000+0  43358-3 0  99982 45390  53.0402 118.7505 0005192   6.6310 353.4773 15.68101068342150

JSON: /api/v1/satellites/45390 · /tle

For live sub-satellite position, see the globe view (requires WebGL).

§ Visibility from observer

Set your observer location to see the next 7 days of passes ≥ 10°. The values pass through the URL so the page stays shareable.

No JS? Fill the form by hand. The geolocation button needs JavaScript.